Regional Weather Roundup
Issued by NWS

Home | Current Version | Previous Version | Graphics & Text | Print | Product List | Glossary Off
Versions: 1 2 3 4 5 6 7 8 9 10 11 12 13 14 15 16 17 18 19 20 21 22 23 24 25 26 27 28 29 30 31 32 33 34 35 36 37 38 39 40 41 42 43 44 45 46 47 48 49 50

000
ASUS43 KMPX 021810
RWRMN
WEATHER ROUNDUP FOR MINNESOTA
NATIONAL WEATHER SERVICE TWIN CITIES/CHANHASSEN MN
100 PM CDT THU JUL 02 2015


NOTE: "FAIR" INDICATES FEW OR NO CLOUDS BELOW 12,000 FEET WITH NO
SIGNIFICANT WEATHER AND/OR OBSTRUCTIONS TO VISIBILITY. N/A MEANS
CURRENT SKY AND/OR WEATHER CONDITIONS ARE NOT AVAILABLE.

MNZ060>063-068>070-021900-
   Twin Cities Metro

CITY           SKY/WX    TMP DP  RH WIND       PRES   REMARKS
TWIN CITIES    MOSUNNY   73  53  49 E3        30.02F
6HR MIN TEMP:  59; 6HR MAX TEMP:  73;

ST PAUL        SUNNY     75  55  49 SE9       30.02F
CRYSTAL        MOSUNNY   76  51  41 E10       30.00F
BLAINE         MOSUNNY   75  52  43 E9        30.02F
LAKEVILLE      MOSUNNY   72  55  56 S3        30.02F
EDEN PRAIRIE   SUNNY     74  55  51 SE6       30.01F
6HR MIN TEMP:  56; 6HR MAX TEMP:  74;

SOUTH ST PAUL  SUNNY     74  52  47 SE7       30.02F
LAKE ELMO      FAIR      73  55  53 SE6       30.03F
$$
MNZ001>005-007-008-013>017-022>024-027-028-021900-
   Northwest Minnesota

CITY           SKY/WX    TMP DP  RH WIND       PRES   REMARKS
BEMIDJI        MOSUNNY   73  55  51 SW12      30.00F
HALLOCK        MOSUNNY   73  64  73 S10       29.92F
ROSEAU         SUNNY     73  61  64 SW12      29.95F
WARROAD        SUNNY     72  57  60 SW10      29.96S
THIEF RVR FALL SUNNY     72  54  53 SW13G20   29.97F
CROOKSTON      SUNNY     73  57  56 S14       29.96F
FOSSTON        SUNNY     72  55  56 SW13G20   30.00S
DETROIT LAKES  SUNNY     72  54  53 SW8G16    30.02F
MOORHEAD       SUNNY     73  55  53 S14       29.99F
PARK RAPIDS    SUNNY     75  54  47 SW12      30.02S
$$
MNZ006-009>011-018-025>026-021900-
   North Central Minnesota

CITY           SKY/WX    TMP DP  RH WIND       PRES   REMARKS
BAUDETTE       MOSUNNY   74  49  41 SW14      29.95F
FLAG ISLAND    MOSUNNY   72  61  68 SW10      29.92F
INTL FALLS     MOSUNNY   75  59  57 W9        29.96F
6HR MIN TEMP:  58; 6HR MAX TEMP:  76;

WASKISH        SUNNY     73  61  64 SW8       29.98F
BIG FORK       SUNNY     75  57  53 SW8       30.00F
LONGVILLE      SUNNY     73  57  56 SW7       30.02S
GRAND RAPIDS   SUNNY     73  55  53 W6        30.02S
CRANE LAKE     MOSUNNY   73  61  64 W3        29.98F
ORR            MOSUNNY   75  57  53 SW5       29.97S
COOK           MOSUNNY   75  59  57 SW9       30.00S
$$
MNZ012-019>021-037-021900-
   Northeast Minnesota

CITY           SKY/WX    TMP DP  RH WIND       PRES   REMARKS
DULUTH         MOSUNNY   75  57  53 W5        30.01F
6HR MIN TEMP:  59; 6HR MAX TEMP:  76;

ELY            PTSUNNY   73  57  56 W6        29.99S
HIBBING        MOSUNNY   74  58  57 W6        30.01S
DULUTH HARBOR  SUNNY     75  61  60 SW7       30.00F
TWO HARBORS    MOSUNNY   79  64  61 SW10      29.98F
SILVER BAY     MOSUNNY   77  63  61 CALM      29.97F
GRAND MARAIS     N/A     55  50  83 W7        29.97F
G MARAIS ARPRT MOSUNNY   70  55  60 S7        30.01S
$$
MNZ029>031-032-039>041-046>048-054>057-064-021900-
   West Central Minnesota

CITY           SKY/WX    TMP DP  RH WIND       PRES   REMARKS
FERGUS FALLS   SUNNY     72  55  56 SW10      30.01S
WHEATON        PTSUNNY   70  52  52 S7        30.02S
MORRIS         PTSUNNY   73  48  40 SE10G17   30.01S
ALEXANDRIA     MOSUNNY   70  53  54 S12       30.04F
ELBOW LAKE     FAIR      71  55  56 S12       30.02R
WADENA         SUNNY     73  55  53 S9        30.02S
GLENWOOD       MOSUNNY   72  54  53 SE8       30.04S
APPLETON       PTSUNNY   73  45  35 S6        30.00F
BENSON         MOSUNNY   72  46  40 S7        30.02S
ORTONVILLE     PTSUNNY   72  45  37 S6        30.01S
MADISON        PTSUNNY   70  48  46 S9        30.01S
WILLMAR        FAIR      73  54  49 S7        30.03F
$$
MNZ033>034-036-042>043-049>051-058-059-021900-
   Central Minnesota

CITY           SKY/WX    TMP DP  RH WIND       PRES   REMARKS
ST CLOUD       SUNNY     75  55  49 VRB3      30.02F
6HR MIN TEMP:  54; 6HR MAX TEMP:  75;

SAUK CENTRE    FAIR      71  55  57 S8        30.03F
PAYNESVILLE    SUNNY     69  53  56 SE7       30.03F
AITKIN         MOSUNNY   75  57  53 S7        30.00F
PINE RIVER       N/A     73  57  56 S8        30.05S
BRAINERD       SUNNY     74  54  49 SW8       30.02F
STAPLES        SUNNY     73  54  49 SW6       30.02F
LONG PRAIRIE   FAIR      70  55  60 S5        30.03F
LITTLE FALLS   SUNNY     73  52  46 S7        30.03S
LITCHFIELD     MOSUNNY   73  57  56 S5        30.03F
BUFFALO        MOSUNNY   73  53  49 E6        30.03F
MAPLE LAKE     MOSUNNY   74  58  58 E5        30.03F
$$
MNZ037-044-045-052-053-021900-
   East Central Minnesota

CITY           SKY/WX    TMP DP  RH WIND       PRES   REMARKS
PRINCETON      MOSUNNY   77  55  47 SE7       30.02F
MORA           MOSUNNY   72  55  56 CALM      30.04F
CAMBRIDGE      SUNNY     75  55  50 CALM      30.00F
RUSH CITY      SUNNY     73  55  51 SE3       30.03S
MOOSE LAKE     SUNNY     73  63  68 S3        30.00F
HINCKLEY       MOCLDY    73  55  53 S3        30.02F
CLOQUET        SUNNY     73  55  53 W6        30.02F
MCGREGOR       MOSUNNY   73  55  53 S6        30.02S
$$
MNZ071>073-080-081-089-090-097-098-021900-
   Southwest Minnesota

CITY           SKY/WX    TMP DP  RH WIND       PRES   REMARKS
MONTEVIDEO     MOSUNNY   73  48  40 SW6       30.02F
GRANITE FALLS  MOSUNNY   72  51  48 SE5       30.03S
CANBY          PTSUNNY   68  53  58 SE8       30.02F
MARSHALL       PTSUNNY   70  48  46 E9        30.01S
REDWOOD FALLS  MOSUNNY   73  47  39 SE9       30.01S
OLIVIA         SUNNY     68  46  45 SE10      30.01F
PIPESTONE      PTSUNNY   70  46  43 SE7       30.01F
WINDOM         MOSUNNY   72  48  43 SE10      30.02F
WORTHINGTON    PTSUNNY   66  52  59 SE7       30.02F
JACKSON        PTSUNNY   72  48  43 E8        30.03F
TRACY          PTSUNNY   69  51  51 SE8       30.02F
SLAYTON        PTSUNNY   69  49  48 CALM      30.03F
$$
MNZ065>067-074>077-082>085-091>093-021900-
   South Central Minnesota

CITY           SKY/WX    TMP DP  RH WIND       PRES   REMARKS
MANKATO        SUNNY     72  52  49 S7        30.02F
NEW ULM        SUNNY     72  52  49 E7        30.02S
ST JAMES       MOSUNNY   72  52  49 SE7       30.03S
FAIRMONT       MOSUNNY   70  48  46 SE12      30.01F
GLENCOE        MOSUNNY   74  58  55 S3        30.02F
FARIBAULT      SUNNY     73  54  49 SE5       30.03F
OWATONNA       SUNNY     72  52  49 E6        30.03S
WASECA         SUNNY     72  54  53 SE6       30.04F
ALBERT LEA     SUNNY     72  50  46 CALM      30.02F
$$
MNZ078>079-086>088-094>096-021900-
   Southeast Minnesota

CITY           SKY/WX    TMP DP  RH WIND       PRES   REMARKS
ROCHESTER      SUNNY     71  52  50 VRB6      30.03F
6HR MIN TEMP:  55; 6HR MAX TEMP:  72;

RED WING         N/A     75  50  41 E6        30.01F HAZE
STANTON        MOSUNNY   72  52  49 CALM      30.01F
DODGE CENTER   MOSUNNY   72  54  53 S5        30.03F
WINONA         SUNNY     72  52  49 SE5       30.03F
AUSTIN           N/A    N/A N/A N/A MISG        N/A
PRESTON        SUNNY     69  51  51 E6        30.04F
$$
ABBREVIATIONS USED IN REMARKS
   TC - TEMPERATURES IN CELSIUS
  WCI - WIND CHILL INDEX
   HX - HEAT INDEX
  VSB - VISIBILITY
$$



USA.gov is the U.S. government's official web portal to all federal, state and local government web resources and services.